Location: Newark
(16.3678°N, 77.8722°E)
Time: 07:13:33
(UTC+00:00)

Tiros 1 - Pass Details

Date: 15 December 2019
Orbit: 630 x 664 km, 48.4° (Epoch: 19 January)

Event Time Altitude Azimuth Distance (km) Brightness Sun altitude
Rises 22:13:22 0° 263° (W) 2,979 - -40.5°
Reaches altitude 10° 22:16:51 10° 289° (WNW) 2,062 - -39.7°
Maximum altitude 22:19:16 14° 319° (NW) 1,815 - -39.1°
Drops below altitude 10° 22:21:41 10° 350° (N) 2,053 - -38.6°
Sets 22:25:09 0° 17° (NNE) 2,956 - -37.8°
